Temperature
2 2 2 2 2 2 2 2 2 2 3 3 4 4 4 4 4 4 4 5 5 5 5 6 6 6 6 6 6 7 7 7 7 7 7 7 7 7
1 1 1 1 2 2 2 1 2 2 2 3 3 3 3 4 4 4 4 4 4 5 5 5 5 6 6 6 6 6 6 7 7 7 7 7 7 7
0 0 1 1 1 1 1 1 1 1 1 2 2 3 3 3 3 3 3 4 4 4 4 5 5 5 5 5 5 6 6 6 6 6 7 6 6 6
-0 -0 -0 -0 0 0 0 0 0 1 1 1 2 2 2 3 3 3 3 3 3 4 4 4 4 4 5 5 5 5 5 5 6 6 6 6 6 6
-1 -1 -1 -1 -1 -0 -0 -0 -0 -0 0 0 1 1 2 2 2 2 2 2 3 3 3 3 4 4 4 4 4 5 5 5 5 5 5 5 5 5
-1 -1 -1 -1 -1 -1 -1 -1 -1 -1 -1 -0 0 1 1 1 1 1 2 2 2 2 2 3 3 3 3 4 4 4 4 4 5 5 5 5 5 5
-1 -1 -1 -2 -1 -1 -2 -1 -1 -1 -1 -1 -1 -0 0 1 1 1 1 1 1 2 2 2 2 2 3 3 3 4 4 4 4 4 4 4 4 4
-2 -2 -2 -2 -2 -2 -2 -2 -2 -2 -2 -1 -1 -1 -1 -0 -0 -0 0 0 0 1 1 1 1 2 2 2 3 3 3 3 3 4 4 4 4 4
-3 -3 -3 -3 -3 -3 -2 -2 -2 -2 -2 -2 -2 -2 -2 -1 -1 -1 -1 -1 -0 -0 -0 0 1 1 1 2 2 2 2 3 3 3 3 3 3 3
-4 -3 -3 -3 -3 -3 -3 -3 -3 -3 -3 -3 -2 -2 -2 -2 -2 -1 -1 -1 -1 -1 -1 -1 -0 0 1 1 1 1 2 2 2 2 2 2 2 2
-4 -4 -4 -4 -4 -4 -4 -4 -4 -3 -3 -3 -3 -3 -3 -2 -2 -2 -2 -2 -2 -2 -2 -2 -1 -1 -0 0 0 1 1 1 1 1 2 2 2 2
-5 -5 -5 -4 -4 -4 -4 -4 -4 -4 -4 -4 -4 -3 -3 -3 -3 -3 -3 -3 -3 -3 -2 -2 -2 -2 -1 -1 -0 -0 0 0 1 1 1 1 1 1
-5 -5 -5 -5 -5 -5 -5 -5 -5 -5 -5 -5 -5 -4 -4 -4 -3 -3 -3 -3 -3 -3 -3 -3 -3 -3 -2 -2 -1 -1 -1 -0 -0 0 0 0 0 0
-6 -6 -5 -5 -5 -5 -5 -5 -5 -5 -5 -5 -5 -5 -5 -4 -4 -4 -4 -4 -4 -3 -3 -3 -3 -3 -3 -3 -2 -2 -2 -1 -1 -1 -1 -0 -0 -0
-7 -7 -6 -6 -6 -6 -6 -6 -6 -6 -6 -6 -6 -5 -5 -5 -5 -4 -4 -4 -4 -4 -4 -4 -4 -3 -3 -3 -3 -2 -2 -2 -2 -2 -2 -2 -1 -1
-7 -7 -7 -7 -6 -6 -6 -6 -6 -6 -6 -6 -6 -6 -6 -6 -5 -5 -5 -5 -5 -5 -4 -4 -4 -4 -4 -3 -3 -3 -3 -3 -3 -3 -3 -2 -2 -3
-8 -8 -7 -7 -7 -7 -7 -7 -7 -7 -7 -7 -7 -6 -6 -6 -6 -6 -5 -5 -5 -5 -5 -5 -5 -5 -4 -4 -4 -4 -4 -3 -3 -3 -3 -3 -3 -3
-8 -8 -8 -8 -8 -8 -8 -8 -7 -7 -7 -7 -7 -7 -7 -7 -6 -6 -6 -6 -6 -6 -5 -5 -5 -5 -5 -5 -5 -5 -4 -4 -4 -4 -4 -4 -4 -4
-9 -9 -9 -9 -9 -9 -8 -8 -8 -8 -8 -8 -8 -8 -8 -7 -7 -7 -7 -6 -6 -6 -6 -6 -6 -6 -6 -6 -6 -5 -5 -5 -5 -5 -5 -4 -4 -4
-9 -9 -9 -9 -9 -9 -9 -9 -9 -8 -8 -8 -8 -8 -8 -8 -8 -7 -7 -7 -7 -7 -6 -6 -6 -6 -6 -6 -6 -6 -5 -5 -5 -5 -5 -5 -5 -5
-10 -10 -10 -10 -10 -10 -9 -9 -9 -9 -9 -9 -9 -8 -8 -8 -8 -8 -8 -7 -7 -7 -7 -7 -6 -6 -6 -6 -6 -6 -6 -6 -6 -6 -6 -6 -6 -6
-11 -10 -10 -10 -10 -10 -10 -10 -10 -9 -9 -9 -9 -9 -9 -9 -8 -8 -8 -8 -8 -7 -7 -7 -7 -7 -7 -7 -7 -7 -7 -7 -7 -7 -6 -6 -7 -7
-11 -11 -11 -11 -11 -10 -10 -10 -10 -10 -10 -9 -9 -9 -9 -9 -9 -9 -9 -9 -8 -8 -8 -8 -8 -8 -8 -8 -8 -8 -8 -8 -8 -7 -7 -7 -7 -7
Wind_Speed
6 6 6 5 5 5 4 4 5 6 8 5 4 4 6 8 10 10 11 12 14 14 14 14 14 13 14 14 14 13 13 13 12 12 12 12 12 12
5 6 7 6 5 5 5 5 5 6 8 6 5 4 5 7 10 10 11 13 14 14 15 15 15 15 15 15 15 15 15 14 13 13 13 13 12 13
7 7 8 7 6 6 5 5 6 6 9 8 5 4 5 6 7 9 11 11 11 14 15 16 16 16 15 14 15 15 16 15 15 14 14 14 13 13
7 7 8 7 7 6 6 7 7 7 8 10 7 5 6 6 6 6 7 9 10 13 15 16 16 15 15 15 15 15 15 16 15 15 14 14 13 13
8 8 8 7 8 6 6 7 7 7 7 8 8 6 5 5 5 5 6 6 8 11 13 14 15 15 15 14 14 14 15 15 15 15 15 15 14 13
8 8 8 8 8 8 7 7 7 7 7 7 8 6 5 5 4 5 6 5 6 7 9 11 12 13 13 13 14 14 14 15 16 16 15 15 14 13
8 8 8 9 11 9 8 7 7 7 6 7 7 6 6 5 5 5 7 6 5 5 5 6 6 7 9 12 13 13 14 15 15 15 15 14 13 13
8 8 8 9 11 12 13 12 10 9 8 8 8 8 7 6 5 6 6 6 6 3 4 6 6 6 7 7 10 11 12 13 14 14 14 12 12 12
7 7 7 8 10 8 10 12 12 13 13 10 10 9 8 7 6 7 7 8 8 5 4 7 5 7 6 7 10 11 11 12 12 12 12 11 11 12
7 8 8 8 8 8 8 9 9 10 11 10 9 9 9 8 8 9 9 8 6 4 4 6 5 6 6 6 8 10 11 11 11 11 10 9 10 10
7 7 8 8 11 12 9 9 9 9 10 13 13 12 13 14 11 7 7 7 7 5 4 4 5 5 5 5 6 9 10 10 10 9 8 8 8 8
6 7 10 10 11 12 9 9 9 8 7 7 8 10 10 10 12 9 8 8 6 5 4 4 4 3 4 3 4 5 7 9 10 9 9 8 8 7
6 6 7 11 12 11 10 8 10 8 6 6 6 6 6 5 6 7 7 8 8 7 4 4 4 4 4 4 3 4 5 5 6 7 8 9 9 7
6 6 7 10 11 11 9 9 11 9 6 5 6 6 6 6 5 6 8 8 8 8 7 6 5 6 5 5 4 3 3 4 4 4 5 7 9 9
6 8 9 9 8 7 9 9 8 6 5 5 6 6 5 5 5 5 5 5 5 6 7 7 6 6 5 5 5 4 3 3 3 4 4 4 5 5
6 7 8 8 6 6 6 6 4 5 5 5 5 5 4 4 4 4 4 4 4 4 4 6 6 6 5 5 5 5 4 3 3 4 4 4 4 5
5 3 3 3 3 3 4 4 3 4 4 4 4 4 4 4 4 3 4 4 5 5 3 2 3 3 3 4 5 5 4 4 4 3 3 4 4 4
5 3 4 4 4 4 4 4 4 4 4 4 4 4 5 5 4 3 3 3 4 4 4 3 2 1 1 2 4 5 4 3 3 3 3 4 4 3
3 3 3 3 3 3 4 4 4 4 3 4 4 4 4 4 4 3 3 3 3 3 3 2 3 3 3 4 2 2 3 3 3 3 3 3 4 4
3 3 3 3 3 3 4 4 4 4 3 3 4 4 4 4 4 3 3 3 2 2 2 2 2 3 4 4 3 3 2 3 3 3 2 2 2 3
3 3 3 3 3 4 4 4 4 4 4 3 3 4 4 3 3 3 2 3 2 2 2 2 2 2 1 1 1 1 1 2 2 2 2 1 2 2
4 3 3 3 3 3 4 4 4 4 4 3 3 3 3 2 3 2 2 2 2 1 1 1 0 0 0 1 2 1 1 2 3 4 2 3 3 3
4 4 4 4 4 3 3 4 4 4 3 3 3 2 2 2 2 2 2 2 1 1 0 0 1 1 0 1 2 1 0 1 1 2 3 4 3 3
Wind_Direction
236 237 242 245 239 241 241 236 241 262 259 248 239 237 254 259 259 258 258 259 259 258 262 265 264 258 258 256 248 247 246 247 248 244 243 245 240 237
239 240 244 248 244 239 239 242 241 247 263 254 242 250 258 264 262 259 258 261 259 260 262 263 264 259 254 254 247 244 243 243 242 245 242 243 241 238
245 244 247 247 248 244 240 242 243 245 260 271 257 254 242 252 266 260 260 258 258 260 261 264 263 259 254 252 250 248 244 241 238 240 239 240 236 237
245 246 250 250 250 248 242 244 247 246 252 268 272 257 250 249 251 254 262 260 260 260 260 261 262 260 255 252 254 250 245 241 237 237 239 238 233 235
242 241 246 246 250 252 250 250 251 252 250 259 269 264 255 251 253 263 260 262 267 265 263 262 263 261 257 253 252 249 243 241 237 234 238 236 230 233
239 239 242 241 244 248 252 251 252 252 252 258 265 265 254 246 240 251 262 256 264 273 267 263 265 262 258 256 254 251 242 238 237 235 236 233 228 230
243 242 243 245 248 248 251 247 246 249 253 258 264 271 257 246 244 249 260 266 264 261 263 260 261 261 259 259 255 249 241 237 237 235 237 232 225 227
248 247 247 248 254 256 257 257 253 249 249 253 258 261 263 250 247 254 257 264 266 244 251 265 259 257 256 251 255 251 244 237 234 234 230 227 223 224
245 250 256 257 258 252 260 264 262 261 256 252 254 254 259 254 246 248 248 252 259 255 259 266 261 261 265 258 257 252 250 241 233 233 225 223 224 222
247 244 247 252 255 254 252 255 254 256 256 252 250 253 257 257 246 249 251 259 270 252 239 260 262 262 269 263 257 249 248 243 238 229 223 225 225 224
251 248 248 248 258 256 253 254 257 258 263 260 260 262 263 264 263 257 247 248 261 256 228 245 259 272 267 257 256 250 249 248 240 231 224 228 226 223
256 253 256 256 261 256 246 247 253 258 260 266 268 270 269 266 262 249 239 241 253 258 225 226 249 269 275 257 249 255 254 249 237 233 231 230 224 220
264 259 255 261 262 259 255 248 255 259 252 252 261 264 265 262 256 251 241 236 239 250 229 223 251 253 256 272 271 252 243 241 234 233 229 225 220 217
266 264 263 266 264 260 257 257 262 261 252 251 256 260 261 261 258 254 246 241 240 246 240 228 244 246 251 261 267 259 236 232 228 227 232 226 222 222
270 273 277 271 268 265 266 267 265 259 250 251 256 263 261 259 261 263 257 248 255 259 249 243 238 237 238 245 251 254 261 252 233 222 222 220 222 220
284 286 289 286 278 276 276 273 263 259 256 255 260 264 261 256 258 258 255 245 251 263 257 247 240 233 240 238 238 244 248 238 224 230 228 228 231 230
288 282 281 282 276 273 270 266 261 265 260 260 262 266 269 268 268 263 258 246 241 243 250 240 248 242 241 230 241 239 237 241 225 220 228 239 235 228
291 274 274 271 270 273 273 275 266 263 262 263 262 261 266 269 270 268 268 250 241 236 232 215 187 205 268 286 252 235 230 233 231 225 229 235 240 231
302 280 275 273 277 279 278 275 274 271 265 262 262 263 267 271 267 267 267 260 244 230 222 215 208 202 220 255 280 243 225 228 227 237 236 242 244 242
298 291 285 282 279 276 277 279 281 280 270 262 260 261 260 262 262 260 258 254 246 234 226 223 218 210 219 232 260 296 272 223 224 234 254 278 277 272
298 295 289 285 284 282 280 278 276 273 271 267 262 260 257 249 251 247 248 259 251 233 234 245 245 240 210 135 231 288 334 322 271 241 232 249 269 265
305 301 297 293 288 284 284 281 277 276 276 270 267 264 257 247 246 243 236 243 244 231 245 273 283 203 208 207 207 232 309 3 16 12 340 273 237 230
302 301 299 299 295 289 283 279 279 282 281 277 274 270 261 259 262 256 248 238 238 217 209 281 349 6 307 184 188 211 189 344 357 18 7 5 352 312
Height
1484 1485 1486 1487 1488 1489 1490 1491 1492 1488 1486 1487 1488 1489 1490 1491 1491 1492 1492 1493 1494 1495 1496 1496 1497 1497 1498 1499 1500 1501 1502 1503 1504 1505 1507 1508 1509 1511
1478 1479 1480 1480 1482 1483 1484 1484 1485 1485 1482 1480 1482 1483 1484 1485 1485 1486 1486 1487 1487 1488 1489 1490 1490 1491 1492 1493 1494 1495 1496 1497 1498 1499 1500 1502 1503 1505
1472 1472 1473 1474 1475 1476 1477 1478 1478 1479 1477 1474 1477 1477 1478 1478 1479 1479 1479 1480 1480 1481 1482 1483 1484 1484 1485 1486 1487 1488 1489 1490 1491 1492 1493 1495 1497 1498
1465 1466 1467 1468 1468 1469 1470 1470 1471 1472 1472 1469 1469 1471 1471 1472 1472 1472 1472 1473 1473 1474 1475 1476 1477 1477 1478 1478 1479 1480 1481 1483 1484 1485 1486 1488 1490 1491
1459 1459 1460 1461 1461 1462 1463 1463 1464 1465 1465 1464 1462 1464 1464 1465 1465 1465 1466 1466 1466 1467 1468 1469 1469 1470 1470 1471 1472 1473 1474 1475 1476 1477 1479 1481 1482 1483
1452 1452 1453 1454 1455 1456 1456 1456 1457 1458 1458 1457 1456 1456 1457 1458 1458 1458 1458 1458 1459 1460 1460 1461 1462 1462 1463 1464 1464 1465 1466 1468 1469 1470 1471 1473 1475 1476
1444 1445 1446 1447 1448 1449 1449 1450 1450 1451 1451 1450 1450 1449 1449 1450 1451 1451 1451 1451 1451 1452 1452 1453 1454 1454 1455 1456 1457 1457 1459 1460 1461 1463 1464 1465 1467 1469
1436 1437 1438 1439 1440 1441 1442 1442 1443 1443 1443 1443 1443 1442 1442 1444 1444 1445 1445 1445 1443 1445 1445 1445 1446 1446 1447 1448 1448 1450 1451 1452 1454 1455 1456 1458 1460 1461
1429 1430 1431 1431 1433 1433 1433 1434 1435 1435 1436 1437 1435 1434 1436 1437 1438 1438 1437 1437 1436 1437 1439 1436 1438 1438 1439 1439 1441 1442 1443 1444 1446 1447 1449 1450 1452 1454
1422 1423 1424 1424 1425 1425 1425 1426 1426 1427 1428 1428 1428 1428 1429 1430 1431 1432 1431 1431 1431 1431 1432 1430 1430 1430 1431 1432 1433 1434 1435 1437 1438 1440 1441 1443 1445 1446
1415 1416 1416 1416 1417 1419 1419 1418 1418 1419 1420 1420 1421 1421 1422 1423 1424 1425 1424 1424 1422 1422 1424 1424 1423 1423 1423 1424 1425 1426 1428 1430 1431 1433 1434 1436 1438 1439
1409 1409 1410 1410 1410 1411 1411 1411 1410 1411 1412 1412 1412 1413 1413 1414 1415 1416 1417 1417 1415 1414 1415 1418 1416 1417 1415 1415 1417 1419 1420 1422 1424 1425 1427 1429 1431 1432
1402 1402 1403 1403 1404 1404 1404 1404 1404 1405 1405 1405 1405 1405 1405 1405 1406 1407 1408 1409 1409 1407 1409 1411 1410 1410 1411 1409 1410 1411 1413 1414 1416 1418 1419 1421 1423 1425
1396 1396 1396 1397 1397 1397 1398 1397 1398 1399 1398 1398 1398 1397 1397 1397 1398 1399 1400 1400 1401 1401 1402 1403 1403 1403 1404 1403 1403 1404 1406 1408 1409 1410 1412 1414 1416 1418
1391 1391 1391 1391 1391 1391 1391 1391 1392 1392 1391 1391 1391 1390 1390 1390 1390 1391 1391 1392 1392 1393 1394 1395 1396 1397 1398 1398 1397 1398 1399 1400 1402 1404 1405 1407 1408 1410
1386 1386 1386 1385 1385 1385 1385 1385 1385 1385 1385 1385 1384 1384 1384 1384 1384 1384 1384 1384 1384 1384 1386 1388 1389 1390 1391 1391 1392 1392 1393 1394 1396 1398 1399 1401 1402 1404
1381 1380 1380 1379 1379 1379 1379 1379 1379 1379 1379 1379 1379 1378 1378 1378 1377 1377 1377 1377 1377 1377 1378 1380 1382 1384 1385 1386 1386 1386 1388 1389 1390 1392 1393 1394 1396 1398
1377 1375 1374 1374 1374 1374 1373 1373 1373 1373 1373 1373 1373 1373 1372 1372 1371 1371 1372 1372 1371 1371 1372 1374 1376 1377 1379 1380 1381 1381 1382 1383 1385 1387 1388 1389 1390 1391
1372 1371 1370 1369 1369 1369 1369 1368 1368 1368 1368 1368 1367 1367 1367 1366 1366 1366 1366 1366 1366 1367 1368 1369 1371 1372 1373 1373 1375 1377 1378 1378 1380 1382 1383 1384 1384 1386
1369 1367 1366 1365 1365 1365 1364 1364 1363 1363 1363 1362 1362 1362 1362 1362 1361 1361 1361 1361 1361 1362 1364 1365 1367 1368 1369 1369 1370 1371 1374 1374 1376 1377 1378 1379 1380 1382
1366 1364 1363 1362 1362 1361 1360 1360 1359 1359 1358 1357 1357 1357 1357 1357 1357 1357 1358 1358 1359 1359 1359 1360 1362 1364 1365 1366 1367 1367 1369 1371 1372 1373 1374 1375 1375 1376
1363 1362 1361 1360 1359 1358 1357 1356 1356 1355 1354 1353 1353 1353 1353 1354 1354 1354 1354 1355 1355 1356 1356 1357 1359 1361 1362 1362 1363 1364 1365 1367 1369 1370 1371 1371 1372 1372
1361 1360 1358 1357 1356 1355 1354 1353 1352 1351 1351 1350 1350 1350 1350 1350 1350 1350 1351 1352 1352 1352 1353 1354 1355 1357 1358 1359 1360 1361 1363 1364 1365 1366 1368 1369 1370 1371